Wind_Speed
17 18 18 18 18 19 19 20 19 19 19 19 18 18 17 17 17 17 16 16 16 16 17 17 18 18 18 18 19 19 20 21 21 21 20 19 19 19 19 19 20 20 20 20 20 21 21 21 20 19 18 18 17 16 17 18 19 23 27 31 34 35 35
18 18 19 19 19 20 20 20 19 19 19 18 18 18 17 17 16 16 16 16 16 16 16 16 17 17 17 17 17 18 19 19 20 20 20 19 18 18 18 19 19 20 21 21 21 22 22 22 21 21 21 19 17 18 19 17 17 20 25 28 32 34 35
20 19 20 20 20 21 21 20 19 19 18 18 17 17 17 16 16 16 16 16 16 16 15 15 15 15 15 15 15 16 17 17 18 19 19 18 17 17 18 19 19 20 20 21 21 21 21 22 23 23 23 23 23 23 23 21 18 17 21 26 29 30 32
21 21 21 20 20 20 20 20 19 18 18 17 17 16 16 15 14 14 14 14 15 15 14 14 14 14 14 14 14 15 15 16 16 17 18 18 17 16 17 18 19 19 20 20 20 20 20 20 21 22 23 23 24 24 24 23 21 18 18 22 26 28 30
21 21 21 21 20 20 20 19 19 18 18 17 17 16 15 15 14 13 13 12 13 13 13 13 13 13 13 13 14 14 14 15 15 15 16 16 16 16 15 16 18 19 19 20 19 19 19 19 19 20 21 22 22 23 23 23 22 20 18 18 20 23 26
22 22 21 21 20 20 19 19 18 17 17 17 17 17 16 15 14 13 12 12 12 12 12 13 13 13 13 13 13 13 14 14 14 15 15 15 15 15 14 14 15 17 18 19 19 18 18 18 18 18 19 20 20 20 21 21 20 20 19 18 19 20 21
22 22 21 21 20 20 19 19 18 17 16 17 17 16 16 15 14 14 13 12 12 12 12 12 12 12 13 13 13 13 13 14 14 14 14 14 14 14 13 13 13 15 17 17 17 17 17 16 17 17 17 18 18 18 19 19 18 18 18 19 19 19 20
23 22 22 22 20 19 19 18 18 17 16 16 17 16 16 16 15 14 14 14 13 13 13 13 13 12 12 13 13 13 13 13 14 14 14 14 14 13 13 12 12 13 14 16 16 15 15 15 15 15 16 16 16 17 17 17 17 17 18 19 19 18 18
24 23 23 22 20 19 19 18 17 17 17 17 17 17 17 16 16 16 16 16 15 15 15 14 14 14 14 13 13 13 13 13 13 13 13 13 13 13 13 12 12 12 13 14 14 14 13 13 13 14 14 14 14 14 15 15 15 16 17 18 18 17 17
25 24 23 23 21 19 19 18 17 17 17 18 18 17 17 17 17 17 18 17 17 17 16 16 16 16 16 15 15 14 14 13 13 13 13 13 13 13 12 12 12 12 12 13 14 14 13 12 12 12 13 13 12 13 13 13 13 14 15 17 16 15 15
23 23 22 23 22 20 18 18 18 17 17 18 18 18 18 18 18 18 18 18 18 18 18 17 17 17 17 16 16 16 15 15 14 14 14 13 13 13 12 12 12 12 12 13 13 13 13 13 12 12 12 12 12 12 12 12 13 13 14 15 15 14 14
22 22 22 23 23 22 19 18 19 18 17 17 18 18 18 18 18 18 18 18 18 19 19 18 18 17 17 16 16 16 16 16 16 15 15 15 14 14 13 13 13 13 13 13 13 13 14 14 13 12 12 13 13 13 13 13 13 13 14 15 14 14 14
19 21 23 24 24 22 19 18 18 18 17 17 18 18 19 20 20 19 18 18 19 19 19 19 19 18 17 16 16 16 16 16 17 17 16 16 16 16 15 15 14 14 14 14 14 14 15 15 15 15 14 14 14 15 15 16 15 15 16 16 16 16 15
17 18 22 25 24 22 20 19 19 19 19 18 18 19 20 20 21 20 19 19 18 19 19 19 19 18 18 17 16 15 16 16 17 17 17 17 17 17 17 16 16 16 16 16 16 16 16 17 17 17 16 16 16 16 16 17 18 18 18 18 19 18 18
26 22 22 25 25 23 21 21 21 21 21 21 21 21 21 22 22 22 21 21 20 20 19 19 18 18 18 17 17 16 16 16 17 17 18 18 19 19 18 18 18 17 17 17 18 18 18 18 18 18 18 18 18 17 17 18 18 20 20 21 21 21 21
32 28 27 27 26 25 24 24 23 23 23 24 25 25 25 24 24 24 24 24 23 22 21 19 19 19 19 19 19 18 18 17 17 17 18 19 20 20 20 19 19 19 19 19 19 20 20 20 20 20 20 20 20 20 20 20 20 20 21 22 23 24 24
32 33 32 30 29 28 28 27 26 26 25 26 28 28 27 26 26 26 26 25 24 24 23 21 21 22 22 22 21 20 20 19 19 19 19 20 20 20 21 20 19 20 20 20 20 20 21 21 21 22 21 21 21 21 22 22 22 21 21 22 24 25 25
35 34 32 31 32 33 31 29 28 29 28 28 29 30 30 28 26 26 26 26 26 26 25 25 25 24 24 24 24 23 22 22 22 22 22 22 21 21 22 22 21 21 21 21 21 21 22 22 22 23 23 22 22 22 22 22 22 22 22 22 23 24 25
37 35 32 32 34 33 30 28 28 29 30 29 28 29 30 30 28 25 25 26 27 26 26 26 27 26 26 26 26 25 24 24 25 25 25 24 23 22 23 24 24 23 24 24 24 24 24 24 24 25 24 24 24 24 24 24 24 24 23 23 24 25 26
38 36 34 32 33 32 30 29 28 29 29 29 29 28 28 28 28 26 25 26 27 27 26 26 26 26 26 27 26 26 26 26 26 27 27 26 25 25 26 27 27 27 26 27 27 27 28 28 28 28 28 28 28 29 29 29 28 28 27 27 27 27 28
41 40 38 36 35 35 34 33 32 32 32 32 31 30 28 27 27 27 26 27 29 30 29 27 27 26 26 25 23 24 24 24 24 25 26 27 27 28 29 30 31 31 31 31 31 30 30 30 31 31 31 32 32 32 32 32 32 32 31 31 30 30 30
44 44 43 42 41 40 39 39 38 37 37 37 36 35 34 34 34 34 33 32 32 32 31 29 30 30 30 29 28 27 26 24 23 25 26 27 28 29 30 32 33 33 33 35 35 35 35 34 34 35 34 34 34 34 35 36 36 36 36 35 35 35 34
48 48 47 47 46 45 44 43 42 41 41 41 41 40 40 40 41 40 39 37 36 36 36 36 36 35 35 34 33 33 32 30 29 29 29 29 30 32 34 35 36 35 35 36 37 37 37 36 36 36 37 38 38 39 40 41 41 40 40 39 39 39 39
50 51 51 51 51 50 49 48 48 47 46 46 45 45 45 45 45 44 42 41 40 40 42 43 41 39 39 38 38 38 38 38 37 36 36 35 35 36 38 40 40 39 39 39 39 39 39 39 38 38 38 39 40 41 42 42 42 42 41 41 41 41 41
52 53 54 54 54 54 54 53 53 52 52 51 51 50 49 49 48 48 46 45 43 43 44 45 43 42 42 43 43 42 43 44 44 44 43 42 42 41 41 42 43 44 44 43 42 42 43 44 44 44 44 44 44 45 45 45 45 46 46 46 46 46 46
51 52 53 54 55 56 56 56 56 56 55 55 55 54 54 53 51 51 50 49 47 45 44 44 44 44 44 45 46 46 46 46 47 46 46 45 44 43 43 44 45 46 46 46 46 46 47 48 49 49 49 49 50 50 51 51 51 51 52 52 52 51 52
49 49 50 51 52 53 54 54 54 55 55 56 56 56 56 56 54 54 53 52 49 45 43 43 43 44 45 46 46 47 47 47 47 47 47 46 45 45 45 45 45 45 45 46 47 47 48 48 49 50 50 51 52 53 53 54 54 54 54 54 54 53 53
47 48 49 49 50 50 51 51 51 52 52 53 54 55 56 56 55 55 53 51 48 46 45 44 44 44 45 45 44 44 45 45 45 45 46 46 45 45 45 45 45 45 46 46 47 48 48 49 49 50 51 51 52 53 53 54 54 54 53 53 53 52 52
49 50 50 50 50 50 50 50 50 50 50 50 51 52 53 54 53 53 51 50 49 48 48 47 47 46 45 44 43 43 43 43 43 44 44 45 45 46 46 47 47 47 47 48 48 49 49 50 50 50 50 51 51 52 53 53 53 53 52 52 52 52 52
51 51 50 50 50 50 50 50 50 50 50 50 50 50 51 51 51 51 50 51 51 51 50 49 48 47 46 45 45 45 45 46 46 47 47 48 48 48 48 49 49 49 49 48 48 47 48 48 49 49 50 50 50 51 52 52 52 52 52 52 52 53 53
49 49 49 48 48 49 49 50 51 51 51 51 51 51 50 50 50 51 51 51 51 51 51 50 49 48 48 48 48 48 48 48 48 49 49 49 49 49 49 49 49 48 48 47 47 47 47 48 48 49 49 50 50 51 51 52 52 52 52 53 53 53 54
49 48 48 48 48 48 49 50 50 51 51 51 51 51 51 51 51 51 51 51 51 51 51 51 49 49 49 49 49 49 48 48 48 48 48 48 48 48 47 47 47 47 47 47 47 48 48 48 48 48 49 49 50 50 51 51 52 52 53 53 53 54 54
48 48 48 47 47 48 48 49 49 50 49 49 49 49 50 50 51 52 52 52 52 52 52 50 49 48 48 47 47 47 47 46 46 46 46 46 47 47 46 46 46 46 47 47 48 48 48 48 48 48 49 49 49 50 50 51 51 52 52 52 53 53 54
48 47 47 47 46 47 47 47 47 47 47 46 46 47 47 48 49 50 51 52 52 52 51 50 49 48 47 46 46 46 46 45 45 45 45 45 46 46 46 45 46 46 47 47 47 47 47 47 47 48 48 49 49 49 50 50 51 52 52 53 53 53 54
48 47 46 46 46 45 45 45 45 45 44 43 44 44 44 45 45 46 47 48 49 49 49 49 48 48 47 46 45 45 45 45 45 45 45 45 46 46 46 45 46 46 47 47 47 47 47 47 47 47 48 48 49 50 50 50 51 52 52 53 53 54 55
47 47 46 46 45 45 44 44 45 45 44 43 43 43 43 43 43 43 43 44 44 45 45 46 46 46 45 45 45 44 44 44 45 45 46 46 46 46 46 46 46 46 46 46 47 47 46 47 47 47 48 48 49 49 50 50 51 52 53 53 54 55 55
48 47 46 45 45 44 45 45 45 44 44 44 44 44 43 43 43 43 42 41 41 41 42 42 43 43 44 44 44 43 44 44 44 45 46 46 46 46 46 46 46 46 46 46 46 46 46 46 46 46 46 46 47 48 49 49 50 51 52 52 53 53 53
Wind_Direction
301 302 303 302 300 297 292 289 288 287 286 285 285 286 286 286 286 284 283 281 280 277 274 271 268 266 264 263 262 263 264 265 266 267 267 266 266 265 264 264 263 262 262 261 261 263 262 261 262 265 269 270 265 264 265 262 257 251 245 242 239 238 238
301 303 304 302 299 297 293 288 285 284 284 284 283 283 284 284 283 282 281 279 278 275 273 270 268 267 265 263 262 262 262 264 265 267 267 267 264 263 262 261 261 260 261 261 260 261 261 259 260 261 262 263 264 267 269 266 263 253 245 243 242 242 243
301 302 301 298 295 293 291 286 283 282 281 281 280 279 280 280 280 279 279 279 278 276 274 271 269 268 267 266 263 263 264 265 266 268 268 268 265 261 259 258 258 258 259 260 260 260 260 259 259 260 261 261 262 265 266 265 264 257 245 241 241 241 242
298 298 296 292 288 285 285 283 280 280 280 280 279 278 278 277 277 277 276 277 278 278 278 276 274 272 270 269 266 265 266 267 268 270 271 271 269 264 259 258 258 258 259 260 261 260 260 260 259 260 261 262 263 263 264 263 262 259 251 244 242 242 242
294 292 289 284 281 278 278 278 277 278 279 280 281 280 281 280 280 280 279 279 280 281 282 281 280 277 275 272 270 267 266 267 269 270 272 273 273 269 264 260 258 258 259 259 260 259 259 259 259 259 259 261 262 263 262 262 260 257 255 252 248 247 248
289 284 281 277 274 272 272 273 274 276 278 279 281 281 282 282 282 282 282 282 282 282 283 283 282 281 279 277 274 272 269 268 268 268 269 270 272 272 268 262 259 258 259 260 260 260 258 257 257 257 257 258 260 261 260 260 259 258 256 254 252 251 252
284 276 273 271 269 269 270 271 270 272 275 277 279 279 280 280 280 280 279 279 279 279 280 281 281 281 280 279 276 274 272 270 269 268 267 267 268 269 268 264 259 257 259 261 262 262 260 258 256 255 255 255 256 258 259 258 257 256 254 253 253 253 255
280 271 267 267 267 268 269 270 270 271 273 276 277 278 279 279 278 278 276 275 273 273 274 274 276 277 276 276 275 273 272 270 269 269 268 268 267 267 266 265 259 255 255 259 261 261 260 257 255 254 254 253 254 254 255 255 254 252 252 253 254 254 255
276 266 262 263 266 268 268 267 269 271 273 275 277 278 280 280 280 278 276 274 271 270 270 269 271 272 272 272 271 271 271 270 270 270 270 270 270 270 269 266 263 256 252 254 256 256 255 254 250 250 252 252 252 252 253 253 251 250 251 253 254 254 254
269 262 259 261 263 267 270 269 269 273 275 275 277 279 281 282 281 279 277 275 272 270 268 268 268 268 270 270 271 271 271 271 271 270 270 269 269 270 270 269 267 262 257 254 256 256 256 254 249 245 247 250 250 249 250 252 250 250 253 255 257 257 256
261 258 256 257 260 263 270 274 273 274 277 278 278 278 279 279 278 277 276 275 274 272 269 268 267 266 267 269 270 272 272 273 273 272 272 271 270 269 269 269 267 265 262 257 256 257 257 256 254 248 245 247 250 250 249 249 249 250 252 256 259 260 260
255 255 254 254 257 260 266 273 276 276 277 277 278 277 276 275 274 272 273 273 273 272 271 269 268 266 266 267 270 272 274 275 275 274 274 272 271 270 268 268 267 265 264 261 259 258 257 256 256 253 249 247 250 254 255 254 253 253 254 256 257 258 259
258 258 256 253 254 259 263 268 273 275 275 275 275 277 276 275 274 271 271 271 271 271 271 270 270 268 267 267 269 272 275 276 277 277 276 274 271 270 268 266 265 263 261 259 258 256 256 256 256 256 254 252 251 252 256 259 259 258 259 260 260 258 257
270 270 265 260 255 256 261 267 271 272 274 276 276 277 277 277 275 273 270 269 269 269 269 270 270 270 270 270 270 271 273 276 277 277 277 277 274 271 268 266 265 264 263 260 257 255 254 254 254 256 256 256 256 255 256 259 262 262 262 262 263 262 260
267 274 273 267 257 253 258 264 268 269 271 273 273 273 273 272 272 272 270 267 265 264 265 267 269 270 271 271 272 272 273 275 277 278 278 277 276 274 271 269 266 264 264 264 263 261 259 257 257 257 258 259 260 260 261 261 263 265 266 265 265 265 264
266 271 274 267 255 251 257 261 261 265 268 269 270 270 270 270 269 269 268 267 265 263 263 264 267 268 269 269 270 270 272 273 275 278 279 278 276 275 274 272 271 269 267 266 267 268 267 266 265 264 264 264 264 265 266 266 266 267 269 268 268 268 270
267 269 271 268 259 256 261 261 258 261 265 266 268 270 270 268 266 266 266 266 266 264 263 263 263 266 268 269 270 270 270 271 272 274 275 276 276 276 275 273 273 273 272 271 270 270 270 270 270 269 268 267 267 267 268 268 269 269 270 271 271 270 271
267 266 266 266 264 263 265 264 259 259 262 266 270 271 269 263 259 262 265 265 265 263 264 264 263 265 269 272 273 271 270 270 269 268 268 269 271 274 276 276 274 274 275 274 273 272 271 270 270 270 269 268 267 267 267 267 268 268 268 270 272 272 271
269 270 268 265 263 263 266 267 265 262 263 266 268 271 270 261 254 258 262 262 264 264 265 265 265 266 268 270 270 269 269 269 268 267 267 267 268 270 272 274 274 274 274 274 274 274 273 271 270 269 269 268 268 268 268 268 267 267 267 267 269 272 272
271 273 273 268 264 263 265 266 267 266 265 266 266 271 274 263 253 258 261 258 258 260 261 263 266 265 263 262 265 268 267 267 269 271 272 273 273 272 271 271 272 272 272 272 272 273 272 272 271 269 268 268 269 269 270 270 269 269 268 268 268 269 271
275 275 274 272 268 266 265 265 265 265 265 266 265 268 272 265 258 263 267 263 261 262 261 262 264 266 264 262 264 268 267 265 267 271 274 274 273 272 272 273 273 274 274 275 275 274 274 273 273 271 270 268 268 268 269 269 270 270 270 269 268 268 269
274 275 275 274 273 270 268 267 267 266 266 268 268 267 268 267 266 269 272 272 271 267 263 265 268 269 268 268 267 268 268 265 265 270 273 274 273 273 273 274 274 275 275 275 276 276 277 276 276 275 273 272 270 270 271 272 272 272 271 271 270 270 269
272 273 273 274 274 274 273 272 271 270 269 269 269 268 267 268 269 270 272 274 274 270 266 270 274 272 269 270 270 271 271 269 267 269 271 272 273 274 275 275 275 274 273 273 274 275 275 275 274 274 273 272 272 272 273 273 273 272 272 271 270 270 270
270 272 273 274 275 275 275 275 275 275 274 273 271 270 269 269 271 273 273 273 273 271 269 271 273 270 268 270 270 271 272 272 272 272 272 273 273 274 274 275 275 274 272 272 273 274 274 274 273 273 273 272 272 272 272 272 272 272 271 271 271 271 270
267 269 270 272 273 274 275 275 276 276 276 276 276 274 273 272 273 273 273 272 272 271 270 270 269 268 268 269 269 270 271 272 273 273 273 274 274 274 273 272 273 272 272 272 272 272 273 273 274 275 275 275 274 273 273 273 273 273 273 274 274 274 273
268 268 268 269 270 271 272 273 274 274 275 275 276 275 275 274 274 273 272 272 272 271 269 268 268 268 268 269 269 269 269 270 272 273 274 274 274 274 273 272 272 272 273 273 273 272 272 273 274 275 275 275 275 275 275 275 274 274 275 275 276 276 276
270 269 269 269 269 269 270 270 272 272 273 274 275 275 275 276 276 276 276 275 275 274 271 269 269 268 268 268 268 268 269 270 270 271 273 273 273 273 273 273 273 274 274 274 273 273 273 274 274 275 275 276 276 276 276 276 276 277 277 277 277 277 276
269 269 269 269 269 269 268 269 269 270 271 272 273 274 275 275 276 277 277 278 277 277 275 273 272 270 270 269 269 270 271 271 271 271 272 273 273 274 275 276 276 276 276 276 275 275 275 276 276 276 276 276 276 276 276 276 276 277 277 277 277 276 276
268 269 269 269 269 268 268 268 267 267 268 268 269 271 273 274 274 275 276 276 276 276 275 275 274 274 273 272 272 272 273 273 274 274 275 276 277 278 279 279 279 278 278 277 277 277 277 277 277 277 277 276 276 276 275 275 275 276 276 275 275 275 274
267 268 268 268 268 268 268 268 267 267 267 267 267 268 269 270 271 272 272 272 273 274 274 274 275 275 274 273 273 274 275 276 276 277 278 279 279 279 279 280 279 278 278 278 278 278 277 276 276 276 276 276 276 276 275 275 276 276 275 275 275 274 274
266 267 267 267 267 267 267 267 267 267 267 267 268 268 269 269 269 269 269 270 270 272 273 273 273 273 273 273 273 275 276 276 277 277 277 277 277 277 277 278 278 278 278 278 278 277 276 275 275 276 276 276 275 275 275 275 275 276 275 275 275 275 274
266 266 267 267 267 267 267 267 267 267 267 268 268 268 268 269 269 269 270 270 270 271 272 272 272 272 272 273 274 275 275 275 275 275 275 275 275 275 275 276 276 277 277 276 276 275 275 275 275 275 275 275 275 275 275 275 275 275 275 275 275 275 275
266 266 266 266 266 266 267 267 267 268 268 269 269 269 269 269 269 270 270 271 271 272 272 273 273 273 272 272 273 273 273 273 274 274 274 273 273 273 274 274 274 274 274 274 274 274 274 274 275 275 275 276 276 276 276 276 276 276 276 275 275 275 275
266 266 265 265 265 265 266 267 268 269 269 270 270 270 269 269 269 269 270 270 271 271 272 273 273 273 273 272 272 272 272 272 272 273 272 272 272 273 273 273 273 273 273 273 273 274 274 275 276 276 277 277 277 277 277 277 277 277 277 277 276 276 276
266 266 265 265 265 265 266 267 268 269 270 270 270 270 270 270 270 269 269 269 270 270 271 271 271 272 272 272 271 271 271 271 272 272 272 272 272 273 273 273 273 273 274 274 275 276 277 277 277 277 278 278 278 278 278 278 278 278 277 277 277 277 277
267 267 267 267 267 267 267 267 267 268 268 268 268 268 268 269 270 270 270 271 271 271 270 270 270 270 270 270 270 270 270 270 270 271 271 271 272 272 273 273 273 274 275 276 276 277 277 277 277 278 277 277 277 277 277 277 277 277 277 277 277 278 278
267 267 268 268 268 268 268 267 267 267 266 266 266 266 267 267 268 269 270 271 271 272 272 272 272 271 270 270 269 269 269 269 269 269 270 270 271 272 273 273 274 274 275 275 275 276 276 276 276 276 275 275 275 276 276 276 276 276 277 278 278 279 279
Height
5764 5763 5763 5762 5762 5761 5761 5761 5761 5761 5761 5761 5761 5761 5761 5761 5761 5761 5762 5762 5763 5764 5764 5765 5765 5766 5766 5767 5767 5767 5767 5767 5767 5768 5769 5769 5770 5770 5770 5771 5771 5772 5773 5774 5774 5775 5776 5776 5776 5776 5776 5776 5777 5778 5778 5779 5779 5780 5780 5782 5784 5786 5788
5762 5761 5761 5760 5760 5760 5759 5759 5759 5759 5758 5758 5758 5758 5759 5759 5759 5759 5759 5760 5760 5761 5761 5762 5762 5763 5763 5764 5764 5764 5765 5765 5765 5765 5766 5767 5767 5768 5768 5768 5768 5769 5770 5771 5771 5772 5772 5773 5774 5774 5774 5774 5774 5775 5776 5776 5776 5777 5778 5779 5781 5782 5784
5760 5759 5759 5759 5758 5758 5757 5757 5757 5756 5756 5756 5756 5756 5757 5757 5757 5757 5757 5757 5758 5758 5758 5759 5759 5760 5760 5761 5761 5761 5762 5762 5762 5762 5763 5764 5764 5765 5765 5765 5766 5766 5766 5767 5768 5768 5769 5770 5770 5770 5771 5771 5772 5772 5772 5773 5774 5775 5775 5776 5777 5778 5780
5758 5757 5757 5757 5756 5756 5755 5755 5755 5755 5754 5755 5755 5755 5755 5755 5755 5755 5755 5755 5755 5756 5756 5756 5756 5757 5757 5758 5758 5758 5759 5759 5760 5760 5760 5761 5762 5763 5763 5763 5763 5764 5764 5764 5765 5765 5766 5766 5767 5767 5768 5768 5768 5769 5769 5770 5771 5772 5772 5773 5774 5775 5776
5755 5755 5755 5754 5754 5754 5753 5753 5753 5753 5753 5753 5753 5753 5753 5753 5753 5753 5753 5753 5753 5753 5753 5753 5754 5754 5754 5755 5755 5756 5756 5757 5757 5757 5758 5758 5759 5760 5760 5761 5761 5761 5762 5762 5762 5762 5763 5763 5764 5764 5765 5765 5765 5766 5766 5767 5768 5768 5769 5770 5771 5772 5772
5753 5752 5752 5752 5752 5752 5751 5751 5751 5751 5751 5751 5751 5751 5751 5751 5751 5751 5751 5751 5751 5751 5751 5751 5751 5751 5752 5752 5753 5753 5753 5754 5754 5755 5755 5756 5756 5757 5758 5758 5759 5759 5759 5759 5759 5760 5760 5761 5761 5761 5762 5762 5763 5763 5763 5764 5765 5765 5766 5767 5767 5768 5769
5751 5750 5750 5750 5750 5750 5749 5749 5749 5749 5749 5749 5749 5749 5749 5749 5749 5749 5749 5749 5748 5748 5748 5748 5749 5749 5749 5750 5750 5750 5751 5751 5752 5752 5753 5753 5754 5754 5755 5756 5756 5757 5757 5757 5757 5757 5757 5758 5758 5759 5759 5759 5760 5760 5760 5761 5762 5763 5763 5763 5764 5765 5766
5749 5748 5748 5748 5748 5748 5747 5747 5747 5747 5747 5747 5747 5747 5747 5747 5747 5747 5747 5747 5746 5746 5746 5746 5747 5747 5747 5748 5748 5748 5749 5749 5750 5750 5750 5751 5751 5752 5752 5753 5754 5754 5755 5755 5755 5755 5755 5756 5756 5756 5757 5757 5757 5757 5758 5758 5759 5760 5760 5760 5761 5763 5764
5746 5746 5746 5746 5746 5745 5745 5745 5745 5745 5745 5745 5746 5746 5746 5746 5746 5745 5745 5745 5745 5744 5744 5745 5745 5745 5745 5746 5746 5746 5747 5747 5747 5748 5748 5749 5749 5750 5750 5751 5751 5752 5752 5753 5753 5753 5754 5754 5754 5755 5755 5755 5755 5755 5756 5756 5757 5757 5757 5757 5759 5760 5761
5743 5744 5744 5744 5744 5744 5743 5743 5743 5743 5743 5743 5744 5744 5744 5744 5744 5743 5743 5743 5743 5743 5743 5743 5743 5743 5743 5744 5744 5744 5745 5745 5745 5746 5746 5747 5747 5748 5748 5748 5749 5749 5750 5750 5751 5751 5751 5752 5752 5753 5753 5753 5754 5754 5754 5755 5755 5755 5755 5755 5756 5757 5758
5740 5741 5742 5742 5742 5742 5741 5741 5741 5742 5742 5741 5741 5742 5742 5742 5741 5741 5741 5741 5741 5741 5741 5741 5741 5741 5741 5742 5742 5743 5743 5743 5744 5744 5744 5745 5745 5746 5746 5747 5747 5747 5748 5748 5749 5749 5749 5750 5750 5751 5751 5752 5752 5752 5753 5753 5753 5754 5754 5754 5754 5755 5755
5736 5738 5739 5739 5739 5740 5740 5740 5739 5739 5740 5739 5739 5739 5740 5739 5739 5739 5739 5739 5739 5739 5739 5739 5739 5739 5739 5740 5740 5741 5741 5742 5742 5742 5743 5743 5743 5744 5744 5745 5745 5746 5746 5746 5747 5747 5748 5748 5748 5749 5749 5750 5750 5750 5751 5751 5752 5752 5752 5752 5753 5753 5753
5733 5734 5736 5737 5737 5738 5738 5738 5738 5737 5737 5738 5737 5737 5737 5737 5737 5737 5737 5737 5737 5737 5737 5737 5737 5737 5738 5738 5738 5739 5739 5740 5740 5741 5741 5741 5742 5742 5742 5743 5743 5743 5744 5744 5745 5745 5746 5746 5746 5747 5747 5748 5748 5748 5749 5749 5749 5750 5750 5750 5750 5751 5751
5730 5731 5733 5734 5736 5736 5736 5736 5736 5736 5735 5735 5735 5734 5734 5734 5734 5734 5734 5734 5734 5735 5735 5735 5735 5736 5736 5736 5736 5737 5737 5737 5737 5738 5738 5739 5739 5740 5740 5740 5741 5741 5741 5742 5742 5743 5743 5744 5744 5744 5745 5745 5746 5746 5746 5747 5747 5747 5747 5748 5748 5748 5749
5726 5728 5730 5731 5733 5734 5734 5733 5733 5734 5734 5733 5733 5732 5731 5731 5731 5731 5732 5732 5732 5732 5732 5733 5734 5734 5734 5734 5734 5734 5735 5735 5735 5735 5736 5736 5737 5737 5737 5738 5738 5739 5739 5739 5740 5740 5741 5741 5741 5742 5742 5742 5743 5743 5744 5744 5744 5744 5744 5744 5745 5745 5745
5723 5725 5726 5727 5729 5730 5730 5730 5730 5730 5731 5731 5730 5730 5729 5728 5728 5728 5729 5729 5729 5730 5730 5731 5731 5731 5731 5732 5732 5732 5732 5732 5733 5733 5733 5733 5734 5734 5734 5735 5735 5736 5736 5737 5737 5737 5738 5738 5739 5739 5739 5739 5740 5740 5740 5741 5741 5741 5741 5741 5741 5741 5741
5720 5722 5722 5723 5724 5725 5725 5726 5727 5727 5728 5728 5727 5727 5727 5726 5726 5726 5726 5727 5727 5728 5728 5728 5728 5728 5728 5729 5729 5730 5730 5730 5730 5730 5730 5730 5731 5731 5731 5732 5733 5733 5733 5734 5734 5734 5735 5735 5735 5736 5736 5736 5736 5736 5737 5737 5737 5738 5738 5737 5737 5737 5737
5717 5718 5718 5718 5719 5720 5721 5723 5723 5723 5724 5724 5724 5723 5723 5723 5723 5723 5723 5724 5724 5725 5725 5725 5725 5725 5725 5726 5727 5727 5727 5727 5727 5727 5727 5728 5728 5729 5728 5729 5730 5730 5730 5730 5731 5731 5732 5732 5732 5732 5732 5733 5733 5733 5733 5733 5733 5734 5734 5734 5734 5733 5733
5713 5713 5714 5714 5715 5716 5718 5719 5719 5720 5720 5720 5720 5719 5719 5719 5720 5720 5721 5721 5721 5722 5722 5722 5722 5722 5723 5723 5723 5723 5723 5723 5723 5723 5724 5725 5726 5727 5727 5726 5727 5727 5727 5727 5727 5728 5728 5728 5729 5729 5729 5729 5729 5729 5729 5729 5730 5730 5730 5730 5730 5730 5729
5709 5709 5709 5710 5711 5712 5714 5715 5715 5716 5716 5716 5715 5715 5716 5717 5717 5717 5718 5718 5718 5718 5719 5719 5719 5719 5719 5719 5719 5719 5720 5720 5720 5720 5720 5722 5723 5724 5724 5724 5724 5724 5724 5724 5724 5724 5725 5725 5725 5725 5725 5726 5726 5726 5725 5725 5725 5726 5726 5726 5727 5726 5726
5703 5704 5705 5706 5707 5709 5710 5711 5712 5712 5712 5711 5711 5712 5713 5713 5714 5714 5715 5715 5715 5715 5716 5716 5716 5716 5715 5716 5716 5716 5716 5716 5716 5716 5717 5718 5719 5719 5719 5720 5720 5720 5720 5720 5721 5721 5721 5721 5721 5721 5721 5721 5722 5722 5721 5721 5721 5721 5721 5722 5722 5722 5722
5698 5699 5700 5701 5702 5704 5705 5706 5707 5708 5707 5706 5707 5708 5709 5709 5710 5710 5711 5712 5712 5713 5713 5713 5713 5712 5712 5712 5713 5713 5713 5713 5713 5713 5713 5714 5715 5715 5715 5715 5715 5716 5716 5716 5716 5716 5717 5717 5717 5716 5716 5716 5717 5717 5717 5716 5716 5716 5717 5717 5717 5717 5717
5694 5694 5695 5695 5696 5698 5699 5700 5701 5702 5702 5702 5702 5703 5704 5705 5705 5706 5706 5707 5708 5708 5709 5708 5708 5708 5708 5707 5708 5709 5709 5709 5709 5710 5710 5710 5711 5711 5711 5711 5711 5711 5711 5711 5711 5711 5711 5711 5711 5711 5711 5711 5711 5711 5711 5711 5710 5711 5711 5711 5711 5711 5711
5689 5689 5689 5689 5690 5691 5692 5693 5694 5695 5696 5696 5696 5697 5699 5699 5700 5700 5701 5702 5702 5703 5703 5703 5703 5703 5703 5703 5703 5703 5703 5703 5703 5704 5705 5706 5706 5707 5707 5706 5706 5706 5706 5705 5705 5706 5705 5705 5705 5706 5706 5705 5705 5705 5704 5704 5704 5704 5704 5705 5705 5705 5705
5684 5684 5684 5684 5684 5685 5685 5686 5687 5688 5688 5688 5689 5690 5692 5693 5694 5694 5695 5696 5697 5698 5697 5697 5697 5697 5697 5697 5698 5698 5698 5698 5698 5698 5699 5700 5700 5701 5701 5701 5700 5700 5700 5700 5700 5700 5700 5699 5699 5699 5699 5699 5698 5698 5697 5698 5697 5697 5697 5697 5698 5697 5697
5678 5678 5679 5679 5679 5679 5679 5680 5680 5681 5681 5681 5682 5682 5684 5685 5686 5687 5689 5690 5691 5691 5691 5690 5691 5691 5692 5692 5692 5692 5692 5693 5693 5693 5693 5693 5694 5694 5694 5694 5694 5694 5694 5694 5694 5694 5694 5693 5693 5693 5693 5692 5691 5690 5690 5690 5689 5689 5690 5689 5690 5689 5688
5672 5672 5673 5673 5673 5673 5674 5674 5674 5674 5674 5675 5675 5675 5676 5677 5677 5678 5680 5681 5682 5683 5683 5684 5684 5685 5685 5685 5685 5686 5686 5686 5687 5687 5686 5687 5687 5687 5687 5687 5687 5687 5687 5687 5687 5687 5687 5687 5686 5686 5685 5685 5684 5683 5682 5682 5681 5681 5681 5681 5681 5681 5680
5666 5666 5666 5666 5667 5667 5667 5668 5668 5669 5669 5668 5668 5668 5669 5670 5670 5671 5672 5673 5673 5674 5675 5675 5676 5677 5678 5678 5679 5679 5680 5680 5680 5680 5680 5680 5680 5680 5680 5680 5681 5681 5680 5680 5680 5680 5680 5679 5679 5678 5678 5677 5677 5676 5675 5674 5673 5673 5673 5673 5673 5673 5672
5660 5660 5660 5660 5660 5660 5661 5661 5662 5662 5663 5663 5663 5663 5663 5663 5664 5664 5665 5665 5665 5666 5666 5667 5668 5669 5670 5671 5671 5672 5672 5672 5672 5673 5672 5672 5673 5673 5673 5673 5674 5674 5673 5673 5673 5673 5672 5671 5670 5670 5669 5669 5668 5668 5667 5666 5666 5666 5665 5665 5664 5664 5663
5653 5653 5654 5654 5654 5654 5654 5654 5654 5655 5656 5656 5658 5658 5657 5657 5658 5658 5658 5658 5658 5658 5659 5660 5661 5662 5663 5664 5664 5665 5665 5665 5665 5665 5665 5665 5665 5665 5665 5666 5666 5666 5666 5666 5665 5665 5664 5663 5662 5662 5661 5661 5660 5659 5659 5658 5658 5658 5657 5656 5656 5655 5655
5646 5646 5646 5647 5647 5647 5647 5647 5647 5648 5649 5650 5651 5651 5651 5651 5651 5651 5652 5652 5652 5652 5653 5654 5655 5656 5657 5657 5658 5658 5658 5658 5658 5658 5658 5658 5657 5657 5658 5658 5658 5658 5658 5658 5657 5657 5656 5655 5655 5654 5654 5653 5652 5651 5650 5650 5650 5649 5648 5648 5647 5646 5645
5638 5639 5639 5640 5640 5641 5641 5641 5640 5641 5642 5644 5645 5645 5644 5644 5644 5644 5645 5645 5645 5646 5646 5647 5648 5649 5650 5650 5650 5651 5651 5651 5651 5651 5651 5650 5650 5650 5651 5651 5651 5651 5651 5650 5650 5649 5648 5648 5648 5647 5646 5646 5645 5644 5643 5643 5642 5641 5640 5639 5638 5637 5636
5631 5632 5633 5633 5634 5633 5633 5634 5633 5634 5636 5637 5638 5638 5638 5638 5638 5638 5638 5638 5638 5639 5639 5640 5641 5642 5642 5643 5643 5643 5644 5644 5644 5644 5643 5643 5642 5642 5644 5644 5644 5644 5644 5643 5642 5642 5641 5641 5641 5640 5639 5638 5637 5637 5636 5635 5634 5633 5632 5631 5630 5629 5628
5624 5625 5626 5626 5627 5627 5627 5627 5627 5627 5630 5631 5631 5630 5631 5631 5631 5631 5631 5631 5632 5632 5633 5633 5634 5635 5635 5636 5636 5636 5636 5637 5637 5636 5636 5636 5635 5635 5637 5638 5638 5637 5636 5635 5635 5635 5635 5635 5634 5633 5631 5631 5630 5629 5628 5627 5626 5625 5624 5623 5622 5621 5620
5617 5618 5619 5619 5620 5621 5622 5622 5621 5621 5623 5624 5624 5624 5624 5624 5624 5624 5625 5625 5625 5625 5626 5626 5627 5628 5628 5628 5629 5629 5629 5630 5630 5629 5629 5629 5629 5629 5630 5631 5630 5629 5629 5628 5628 5628 5628 5627 5626 5625 5624 5623 5622 5621 5620 5619 5618 5617 5616 5614 5613 5612 5611
5610 5611 5612 5613 5614 5615 5615 5615 5615 5615 5617 5617 5617 5617 5618 5618 5618 5618 5618 5618 5619 5619 5619 5620 5621 5621 5622 5622 5622 5623 5623 5623 5623 5623 5623 5622 5622 5622 5623 5623 5623 5622 5622 5621 5621 5621 5620 5620 5619 5618 5617 5616 5615 5614 5613 5612 5610 5609 5608 5607 5605 5604 5603
5603 5604 5606 5607 5607 5607 5607 5608 5608 5609 5610 5610 5610 5611 5611 5611 5611 5612 5612 5612 5612 5613 5613 5614 5614 5614 5615 5616 5616 5616 5617 5617 5617 5616 5616 5616 5616 5615 5615 5616 5616 5616 5615 5615 5615 5614 5614 5613 5612 5611 5610 5609 5608 5607 5605 5604 5603 5602 5601 5599 5598 5597 5595